Weather in Maslova Pristan'

Russia / Belgorod Oblast     50°27′18″N   36°44′21″E
temp.,
°C
wind,
m/s
gust,
m/s
humid.,
%
clouds,
%
prec.,
mm/h
press.,
hPa
HPBL,
m
7 march, sun
sun700:00−4wnw477751 0.0 1022739
03:00−4wnw467975 0.4 1022737
06:00−4w587697 0.1 1020616
09:00−3wsw7116051 0.1 1019946
12:00−1wsw9134498 0.0 10171128
15:00+1wsw11164699 0.0 10131425
18:00+1wsw9166588 0.0 10101425
21:00−1wsw10168594 0.1 10091068
8 march, mon
mon800:00−1wsw91592100 0.3 1008922
03:00−1wsw7139299 0.5 1008830
06:00−1wsw71293100 0.4 1007767
09:00−1wsw81287100 0.6 1006885
12:00+1w81183100 0.5 1008969
15:00+1wnw71060100 0.8 10081497
18:00−1wnw597088 0.1 1009669
21:00−3wnw387970 0.1 1011533
9 march, tue
tue900:00−3wnw368139 0.0 1011500
03:00−3w478270 0.1 1011626
06:00−5nw588598 0.1 1013570
09:00−6nw687598 0.1 1015667
12:00−4nw6765100 0.0 1016971
15:00−4nw6760100 0.1 10191212
18:00−6nnw6767100 0.1 10201046
21:00−7nnw5768100 0.1 1023917
10 march, wed
wed1000:00−8nnw457094 0.0 1024768
03:00−8nnw347996 0.0 1025553
06:00−9nnw338191 0.0 1026352
09:00−9n237053 0.0 1027467
12:00−6n33503 0.0 1027797
15:00−4nne22424 0.0 1027959
18:00−5ne224513 0.0 1026725
21:00−6e33506 0.0 1027439
11 march, thu
thu1100:00−7e34520 0.0 1028304
03:00−8ese34545 0.0 1028287
06:00−8ese245511 0.0 1028249
09:00−7se234711 0.0 1029336
12:00−4se333970 0.0 1029768
15:00−3sse223657 0.0 10281165
18:00−3sse23410 0.0 1028776
21:00−4sse35460 0.0 1029424